Regional Weather Roundup
Issued by NWS

Home | Current Version | Previous Version | Graphics & Text | Print | Product List | Glossary Off
Versions: 1 2 3 4 5 6 7 8 9 10 11 12 13 14 15 16 17 18 19 20 21 22 23 24 25 26 27 28 29 30 31 32 33 34 35 36 37 38 39 40 41 42 43 44 45 46 47 48 49 50

000
ASUS43 KLSX 171657
RWRMO

WEATHER SUMMARY FOR MISSOURI
NATIONAL WEATHER SERVICE SPRINGFIELD MO
1100 AM CST SUN DEC 17 2017

NOTE: "FAIR" INDICATES FEW OR NO CLOUDS BELOW 12,000 FEET WITH NO
       SIGNIFICANT WEATHER AND/OR OBSTRUCTIONS TO VISIBILITY.
       CURRENT SKY AND/OR WEATHER CONDITIONS ARE NOT AVAILABLE FOR
       CHILLICOTHE AND FARMINGTON.

MOZ001>031-035>038-043-044-053-054-171800-
...NORTHERN AND WESTERN MISSOURI...

CITY           SKY/WX    TMP DP  RH WIND       PRES   REMARKS
KANSAS CTY INT CLOUDY    44  43  96 SW8       30.03S FOG
LEE`S SUMMIT   CLOUDY    45  43  93 SW9       30.03F
ST JOSEPH      CLOUDY    44  44 100 SW5       30.03F FOG
CHILLICOTHE      N/A     45  43  93 SW3       30.04F

$$
MOZ066>068-077>081-088>096-101>105-171800-
...SOUTHWEST MISSOURI...

CITY           SKY/WX    TMP DP  RH WIND       PRES   REMARKS
SPRINGFIELD    CLOUDY    45  44  97 S7        30.07F FOG
JOPLIN         CLOUDY    44  44 100 SW8       30.08S FOG
BRANSON        CLOUDY    45  45 100 S3        30.09F FOG

$$
MOZ032>034-039>042-045>050-055>058-069>072-171800-
...CENTRAL MISSOURI...

CITY           SKY/WX    TMP DP  RH WIND       PRES   REMARKS
COLUMBIA       NOT AVBL
JEFFERSON CITY CLOUDY    48  42  80 CALM      30.07F
ROLLA          CLOUDY    45  40  82 SE6       30.08F
SEDALIA        CLOUDY    46  45  96 SW9       30.06F
WARRENSBURG    CLOUDY    43  41  93 S8        30.05S

$$
MOZ051-052-059>065-171800-
...EAST CENTRAL MISSOURI...

CITY           SKY/WX    TMP DP  RH WIND       PRES   REMARKS
ST LOUIS INTL  CLOUDY    49  33  54 S3        30.10F

$$
MOZ072>076-082>087-097>100-106>115-171800-
...SOUTH CENTRAL AND SOUTHEAST MISSOURI...

CITY           SKY/WX    TMP DP  RH WIND       PRES   REMARKS
CAPE GIRARDEAU CLOUDY    45  41  86 S8        30.13S
POPLAR BLUFF   CLOUDY    45  42  89 S6        30.13F
WEST PLAINS    CLOUDY    43  42  97 S6        30.11S FOG

$$


USA.gov is the U.S. government's official web portal to all federal, state and local government web resources and services.